Pagrindinis puslapis
METAR-TAF:

METAR-TAF

Oro uostai :

Žakarepagva oro uostas

Rio de Žaneiras, Rio de Janeiro, Brazilija

platuma: 22-59S, ilguma: 043-22W, Aukštis: 3 m

Dabartinis oras

Ataskaita buvo paskelbta 8 valandos ir 4 minutes, ne 21:00 UTC
Vėjas 1 kt iš Pietų
Temperatūra 25°C
Drėgmė 94%
Slėgis 1011 hPa
Matomumas 10 km arba daugiau
nėra debesų žemiau 1500 m ir nėra kamuolinių lietaus debesų

METAR: SBJR 062100Z 19001KT CAVOK 25/24 Q1011

Laikas: 02:04 (05:04 UTC)


TAF: trūkstamas

Orai ataskaitas ir orų prognozės (METAR, TAF).

turimą stotys yra geltonos ir raudonos taškus žemėlapyje.

Perkelti pele per norėdami pamatyti stoties vardą.

Tada spustelėkite, norėdami matyti oro stebėjimo ir prognozės.

Norėdami pakeisti žemėlapį: spustelėkite ant žalios mygtukų su juodo kryžiaus žemyn,; žalią mygtuką su brūkšneliu, jei norite nutolinti; arba žalių rodyklių gretimoms žemėlapius.


METAR-TAF: